Theta_e
283 283 282 283 283 282 282 283 283 283 283 284 284 285 285 284 282 281 279 280 280 281 282 281 282 282 281 281 282 280 280 280 281 281 280 279 279 280 283 284 285 286 286 287 287 288 288 289 290 290 291 291 291 292 293 292 293 293 293 293 294 296 296 297 297 297 298 298 299 299 299 300 300 301
282 282 282 283 283 282 282 283 283 283 283 283 283 283 283 284 282 283 281 280 281 282 281 282 281 280 280 280 280 280 279 279 280 280 279 279 279 280 281 282 283 284 285 286 287 288 288 289 289 289 290 290 291 292 292 292 292 292 293 294 295 295 296 296 296 297 297 297 298 298 299 299 300 300
282 281 281 282 282 282 282 282 282 282 282 283 283 283 283 282 283 283 282 279 281 282 280 281 280 280 279 280 279 280 279 279 279 279 279 279 279 279 279 280 282 283 284 285 286 287 288 288 289 289 289 290 290 291 291 291 291 291 292 293 294 294 295 294 295 295 296 296 297 297 298 298 299 299
281 281 281 281 281 281 281 281 281 282 282 282 282 282 282 282 282 282 281 280 279 280 281 281 280 279 279 279 279 278 278 279 278 278 278 278 278 279 279 279 281 282 283 285 286 287 288 288 288 288 288 289 290 290 290 290 290 291 292 293 294 293 293 293 293 294 295 295 295 296 296 297 298 299
281 281 281 281 281 281 281 281 281 281 281 281 282 282 281 281 281 280 280 279 278 278 280 280 280 279 279 278 278 277 278 277 278 278 278 278 278 279 279 279 280 281 283 284 285 287 287 287 287 288 288 288 288 289 289 289 289 291 292 291 293 292 292 293 293 294 293 294 294 294 295 295 297 297
280 281 280 280 280 280 280 280 280 281 280 280 280 280 280 280 280 281 279 280 279 277 277 277 278 278 278 277 278 276 276 277 277 277 278 278 279 279 279 279 280 281 282 284 285 286 286 286 286 287 287 287 288 288 289 289 289 290 291 290 290 291 291 292 292 292 293 294 294 294 294 295 295 296
280 280 280 280 280 280 279 280 280 280 280 280 280 280 280 280 280 280 280 279 278 278 277 277 276 277 277 276 276 276 277 276 277 276 277 278 279 279 279 279 280 281 282 284 285 285 285 285 286 286 286 287 287 287 288 288 288 289 289 289 289 289 289 290 291 291 292 293 293 293 294 294 295 295
279 279 279 279 279 279 279 279 279 279 280 279 279 279 279 279 279 279 279 279 279 278 276 275 275 276 275 276 276 276 276 276 276 277 277 279 278 279 280 279 279 280 282 283 283 284 284 284 285 285 286 286 286 287 287 288 288 288 288 288 287 287 288 288 289 289 291 292 293 293 293 294 294 294
279 279 279 279 279 279 278 278 278 278 278 278 279 278 278 278 278 278 278 278 278 276 276 275 275 275 275 275 275 276 275 276 277 277 277 278 278 278 279 280 280 280 282 282 282 282 283 283 284 284 285 285 286 286 287 287 287 287 286 286 286 287 287 288 288 289 289 290 290 291 293 293 293 294
280 280 280 279 279 279 278 278 277 277 277 277 277 277 277 277 277 277 276 276 276 275 275 274 273 274 273 274 275 276 275 275 275 276 277 278 278 278 278 279 280 280 280 280 281 281 282 282 283 283 284 284 285 285 286 286 286 285 284 284 285 285 287 288 288 288 289 289 290 290 291 292 293 293
280 280 280 279 279 278 279 278 277 277 277 276 275 276 275 276 275 275 275 275 274 274 273 273 273 273 274 274 273 276 276 276 276 275 275 276 278 278 278 277 279 280 280 281 281 281 281 282 282 282 282 283 283 284 284 284 284 283 283 283 284 285 287 287 288 288 289 289 289 290 290 291 293 293
280 280 280 280 279 279 280 279 278 277 276 276 275 275 275 275 274 274 273 273 273 273 272 272 272 273 273 274 275 276 276 275 275 276 275 274 275 277 278 278 278 279 280 279 280 280 281 281 281 281 281 281 281 282 282 282 282 281 282 283 285 286 286 287 288 288 288 288 288 289 289 289 291 293
280 280 280 280 279 279 280 280 279 279 278 275 274 274 274 273 273 272 272 272 272 271 271 271 273 272 273 273 274 274 274 274 275 276 276 275 276 277 277 278 279 279 278 279 279 279 279 278 278 278 279 279 280 280 280 280 280 281 283 284 285 285 286 286 287 287 287 288 288 288 289 289 289 290
279 279 279 279 280 280 280 280 280 280 280 279 276 274 273 273 272 271 270 271 271 271 270 271 272 271 271 273 274 274 275 276 276 275 275 274 276 277 276 277 278 280 279 278 276 277 278 277 277 278 277 278 279 279 279 279 280 281 283 283 284 285 285 286 286 286 287 287 287 288 288 288 289 289
279 279 279 279 280 280 280 280 281 281 281 279 278 278 277 276 272 270 270 270 270 270 270 271 272 272 272 273 274 275 276 276 275 275 276 276 276 275 274 273 277 280 278 276 273 274 276 276 275 276 277 277 278 278 277 279 280 281 282 283 284 284 285 285 285 286 286 287 287 288 288 288 288 288
279 278 278 278 278 279 279 279 279 280 281 280 279 278 278 278 277 276 272 270 270 270 270 271 271 272 273 274 275 275 275 275 276 276 276 276 275 275 274 274 274 279 278 274 272 272 275 276 275 275 275 276 277 277 278 279 280 281 282 283 283 284 284 285 285 285 286 286 286 286 287 287 287 287
279 278 277 277 277 278 279 279 279 279 278 280 279 279 278 278 278 277 277 276 273 273 272 271 272 273 274 274 275 276 275 277 275 276 275 276 276 276 275 274 275 276 276 273 272 271 274 275 274 273 275 276 276 276 277 278 280 281 281 282 283 283 284 284 284 284 284 284 285 285 285 286 286 286
278 277 277 276 276 277 278 278 278 278 278 278 277 277 276 276 277 278 278 277 276 276 274 274 273 275 276 275 277 277 277 276 275 275 275 276 275 274 274 274 274 274 275 272 271 270 273 274 273 273 274 276 276 276 277 278 280 280 281 281 282 282 283 283 283 283 283 284 284 284 284 285 285 286
278 277 277 276 276 277 277 277 278 277 277 277 276 276 275 275 276 276 276 276 276 276 276 276 276 277 278 277 277 277 278 277 277 277 277 276 274 274 273 272 272 272 274 273 271 267 271 273 272 273 274 275 274 275 276 277 278 279 280 280 281 282 282 282 282 282 283 283 283 284 284 284 285 285
278 277 277 276 276 276 276 278 280 279 277 276 275 274 274 274 275 276 278 279 279 278 277 277 278 278 278 278 277 278 278 278 279 277 275 273 270 269 268 268 269 269 273 273 271 268 269 273 271 272 273 274 273 274 275 276 277 278 279 280 280 280 280 281 281 282 282 282 283 283 284 284 284 284
277 276 276 276 276 276 276 279 281 281 279 275 274 273 273 273 274 275 278 280 281 281 281 280 280 280 279 280 281 281 281 280 277 273 272 269 269 267 266 267 268 268 271 271 272 270 268 271 271 270 272 272 272 272 274 275 276 277 278 279 279 279 280 280 280 281 282 282 282 283 283 283 283 283
276 276 278 277 275 275 276 281 282 282 279 275 274 274 273 273 273 274 277 277 279 281 281 280 280 279 280 281 281 281 280 279 276 272 269 269 268 267 266 265 267 267 269 271 272 269 269 270 270 269 270 270 271 272 273 274 274 275 275 276 277 278 279 279 280 280 281 282 282 282 282 282 282 280
275 276 278 278 277 276 277 282 283 283 279 275 275 274 273 272 272 273 274 274 275 276 276 277 278 278 279 278 275 276 276 275 274 272 270 270 268 266 266 266 266 266 268 270 272 267 268 268 269 269 266 266 269 271 272 272 272 273 273 274 274 276 277 279 279 280 280 280 281 281 282 282 281 278
274 275 276 278 280 280 280 282 283 283 281 276 275 275 273 272 271 274 274 274 274 275 276 276 276 275 274 273 273 272 271 271 271 271 271 270 269 266 266 266 266 265 267 271 272 268 268 269 267 269 267 264 263 269 270 270 272 272 273 273 273 275 276 277 277 278 279 279 280 281 281 281 280 277
273 274 275 276 279 280 281 282 283 283 281 278 275 274 273 274 274 276 273 274 276 274 275 274 274 273 271 270 270 270 270 270 270 271 272 271 271 269 267 266 266 265 267 270 272 269 266 267 265 267 266 267 266 266 268 270 271 272 273 273 272 274 274 274 275 275 276 278 279 279 280 280 280 278
273 274 275 275 278 280 281 282 283 283 282 279 275 274 277 278 278 274 274 274 275 274 273 273 271 270 269 267 267 268 268 268 269 269 270 271 270 271 270 268 266 265 265 270 271 269 267 265 266 265 265 265 265 267 266 267 270 271 273 273 273 273 274 273 274 274 274 275 275 276 276 280 280 280
273 274 275 276 279 281 281 282 284 284 283 280 275 278 279 278 279 276 274 274 274 272 271 271 270 269 268 267 266 266 267 268 269 269 270 270 270 270 270 270 270 268 269 270 270 269 267 266 267 265 264 266 264 265 266 266 267 271 271 272 272 273 273 273 273 273 274 274 274 277 278 279 279 279
274 274 275 276 280 281 281 282 283 284 282 278 278 279 279 279 279 275 273 272 272 270 269 269 269 267 267 266 266 266 267 268 269 269 269 269 269 269 269 269 268 269 269 269 269 269 268 267 266 267 267 266 264 264 264 267 269 269 268 270 271 272 272 273 272 273 273 273 273 274 273 273 274 274
275 276 277 278 280 281 282 282 283 284 283 280 279 279 280 279 277 273 272 271 270 269 269 269 268 267 266 266 267 268 268 268 269 268 267 268 267 267 267 267 267 267 267 268 268 268 268 268 267 267 267 267 266 266 267 266 267 267 268 268 267 270 271 272 272 271 272 272 272 272 272 273 273 274
278 278 279 279 280 281 281 280 280 280 281 280 280 280 280 277 274 273 271 270 269 269 269 267 266 265 266 266 267 268 268 267 265 266 264 265 264 264 264 264 265 266 266 267 268 269 269 269 269 268 267 268 268 266 267 266 265 267 268 268 268 269 270 271 271 271 272 271 272 272 273 273 273 274
277 277 278 278 279 280 281 281 281 281 281 281 279 278 278 274 271 271 270 270 270 269 268 266 265 264 265 267 266 265 265 264 265 266 264 264 264 264 264 264 263 265 266 267 268 269 269 270 270 270 267 267 267 267 267 267 265 266 267 268 268 265 268 270 271 271 271 272 272 272 273 273 273 275
276 276 278 278 278 279 279 279 278 278 279 278 277 275 272 270 270 270 272 272 270 268 267 265 264 264 264 263 263 264 264 264 264 265 264 264 263 264 264 263 263 264 264 265 266 268 269 269 270 270 269 268 266 266 267 266 265 265 266 267 268 268 270 269 270 271 272 272 271 270 271 272 272 272
276 276 275 275 276 276 276 275 275 274 272 269 268 268 268 269 269 269 269 267 266 264 263 263 263 262 262 262 263 262 262 262 263 265 263 264 263 263 264 262 263 263 263 263 265 266 267 268 269 269 269 269 268 267 265 264 265 266 266 266 267 267 269 270 270 270 271 270 269 269 269 271 272 272
274 274 274 274 274 275 274 273 271 270 268 266 266 267 268 266 266 266 266 264 263 263 263 263 262 261 262 261 261 261 262 261 262 263 265 263 264 262 262 262 262 263 263 263 264 265 266 267 267 268 268 267 268 268 267 265 264 265 267 267 267 267 269 270 270 270 270 269 269 268 268 269 271 272
273 273 272 273 273 273 272 271 270 268 266 266 266 266 266 265 265 265 264 263 263 263 262 262 262 262 261 261 262 261 262 262 262 262 263 263 262 262 262 262 262 263 263 263 264 265 266 266 266 265 265 265 265 266 270 268 265 265 266 267 268 267 267 269 269 269 269 269 269 267 267 268 269 271
273 273 272 272 272 271 270 270 269 268 268 267 267 266 264 264 264 264 263 263 262 263 262 262 261 261 262 262 261 261 261 262 262 262 262 262 261 262 262 262 262 263 263 263 264 265 266 265 265 263 262 262 262 261 263 271 270 268 266 265 267 267 267 268 268 269 268 268 269 268 266 266 268 270
272 272 272 271 271 270 270 270 269 268 268 267 266 266 265 264 263 264 264 264 262 262 262 262 261 262 261 261 261 262 262 262 261 262 261 261 261 261 261 261 262 263 263 264 265 265 265 265 265 264 262 261 260 259 261 266 268 271 268 266 265 266 266 267 267 266 268 268 268 268 267 267 267 269
272 272 271 271 270 270 270 269 268 268 267 266 265 265 265 265 264 264 265 263 262 262 263 262 262 262 262 262 261 261 261 261 261 261 261 261 261 261 261 261 262 262 263 264 264 265 266 265 264 263 263 260 260 260 260 263 265 267 270 268 265 266 267 266 265 265 266 268 268 269 269 268 268 269
273 271 271 270 269 269 269 268 268 267 267 266 265 265 264 264 263 264 263 263 262 263 263 262 262 261 261 261 261 261 260 260 260 260 260 260 261 260 261 261 261 262 263 263 264 265 265 264 264 263 263 262 261 261 262 262 262 265 268 270 268 266 266 266 266 266 266 266 268 269 269 270 271 274
272 271 271 270 269 269 269 268 267 267 266 266 265 265 264 263 263 263 263 262 262 262 262 261 261 261 261 261 261 261 260 260 260 260 260 260 261 261 261 261 262 262 263 263 263 264 264 264 264 264 264 264 265 266 265 265 265 265 266 267 270 269 268 268 266 266 266 267 267 266 266 268 266 268
271 270 270 270 269 269 268 267 267 266 266 266 265 265 264 264 263 262 262 262 261 261 261 261 262 261 261 260 260 260 259 260 260 260 260 260 261 261 261 262 262 263 263 262 263 263 263 265 266 268 267 266 266 266 264 261 260 262 264 266 269 271 272 271 269 267 266 267 267 266 265 265 265 266
270 270 270 269 268 268 267 266 266 265 265 265 264 263 263 263 262 264 263 264 262 261 261 261 261 261 260 259 259 260 259 259 260 260 260 260 260 261 261 262 262 263 263 262 263 263 265 266 266 266 265 265 264 261 260 260 260 261 263 264 266 269 271 271 272 272 269 268 266 265 265 265 266 265
269 269 268 267 267 266 266 265 265 265 264 264 263 263 262 262 263 264 263 262 261 261 261 260 260 259 259 259 259 259 259 259 259 260 260 260 260 260 261 262 263 263 263 263 264 264 265 265 265 265 264 263 263 262 260 261 261 262 262 263 264 265 266 270 271 271 272 272 272 270 268 266 264 262
269 267 266 266 266 265 265 265 264 264 263 263 263 262 262 262 263 263 262 261 261 260 260 259 258 258 258 258 258 258 258 259 259 259 259 260 261 262 262 262 263 263 263 263 263 263 264 264 264 264 263 262 262 262 261 261 261 262 262 263 263 264 264 265 266 269 270 271 271 272 273 273 273 272
267 266 265 265 265 265 264 264 263 263 263 262 262 262 262 262 262 261 261 261 260 259 258 258 258 257 257 258 257 257 258 260 261 261 261 262 262 262 262 263 263 263 263 263 262 262 263 263 264 264 263 263 263 262 262 262 261 261 262 262 261 263 263 264 263 264 264 265 269 271 272 273 273 273
Wind_Speed
9 7 10 8 6 6 6 5 5 6 5 5 5 5 7 6 4 4 5 7 6 6 8 6 7 4 3 2 2 2 1 2 3 2 3 4 4 7 10 11 11 12 12 13 13 13 13 13 13 13 13 14 14 15 15 15 16 16 16 16 17 18 18 18 18 18 19 20 20 21 21 22 22 23
8 8 8 7 7 6 7 7 7 7 6 6 6 6 3 5 8 6 6 5 5 4 6 3 4 5 3 1 1 1 1 3 4 3 4 5 5 9 11 11 12 12 13 13 13 12 11 11 11 12 13 14 14 15 15 16 16 16 16 17 18 19 19 19 19 20 20 20 20 21 22 22 23 23
9 10 11 8 7 7 8 7 6 6 6 6 5 4 4 4 4 5 4 3 3 2 7 4 1 6 5 2 1 2 1 2 5 4 4 5 7 9 7 9 10 11 11 11 11 11 11 11 12 13 13 14 14 15 16 16 16 17 17 18 19 19 20 20 20 19 20 21 21 22 23 24 25 24
9 11 11 10 8 9 7 7 7 7 6 6 6 6 5 4 4 4 5 5 5 3 4 5 4 4 3 3 4 3 2 2 3 3 4 5 7 5 4 6 8 10 11 11 12 12 12 13 14 14 14 15 16 16 17 18 18 18 19 20 20 21 21 20 20 20 19 20 21 23 24 25 26 26
10 10 11 11 9 9 9 8 8 7 8 7 6 6 6 5 5 6 7 7 7 3 2 3 4 3 2 3 4 2 2 3 3 4 5 4 3 4 4 5 8 12 13 14 14 13 14 14 15 15 15 16 16 17 17 18 18 19 19 20 21 21 21 21 21 21 21 22 23 25 25 26 27 27
10 11 12 11 10 11 10 10 9 9 9 9 8 8 8 7 7 5 6 5 6 7 6 4 3 4 4 4 5 1 4 4 4 4 4 3 3 4 5 6 6 11 12 13 12 12 12 13 13 14 15 15 16 17 18 19 19 19 19 20 20 21 21 22 22 22 23 24 26 26 26 26 26 27
12 12 12 12 11 9 10 10 9 9 9 8 9 9 8 8 7 7 6 5 5 7 5 3 4 4 4 4 4 3 4 5 5 6 4 4 3 3 4 5 4 8 11 12 12 13 13 14 14 14 15 16 17 19 19 19 19 19 20 20 20 20 21 22 23 23 24 25 26 26 27 27 26 26
14 14 13 12 13 13 12 12 10 10 9 9 9 10 9 8 8 7 7 5 4 4 6 3 2 1 1 2 1 2 4 4 5 4 5 4 3 4 4 5 5 7 12 13 13 14 14 15 15 15 16 17 19 19 19 19 19 19 19 20 20 21 21 22 22 23 24 25 26 26 27 27 28 27
14 14 14 13 14 14 13 11 11 10 12 10 9 9 8 9 8 6 6 6 4 5 5 4 2 1 3 3 3 3 4 4 4 3 5 5 6 6 6 5 5 9 12 12 13 12 12 13 13 14 15 17 18 19 19 19 19 19 20 20 20 21 21 21 22 22 23 24 25 26 26 27 28 28
14 15 15 14 15 16 16 14 12 12 14 10 10 10 9 9 8 8 7 6 6 4 4 4 3 1 2 3 3 3 4 5 5 5 5 4 4 6 7 7 5 4 5 5 6 8 9 10 12 13 15 17 18 18 18 18 18 18 19 19 20 20 20 21 22 23 23 24 25 26 27 27 28 28
14 13 13 14 16 16 15 15 16 14 14 11 12 10 10 9 10 9 8 7 7 6 5 3 3 2 2 3 4 2 2 4 4 5 6 6 4 3 4 7 6 5 5 8 11 9 8 10 10 12 15 16 16 17 17 17 18 18 19 19 19 19 21 22 23 24 25 25 25 26 26 27 28 29
13 13 13 12 15 16 15 14 14 15 15 11 12 10 10 11 11 9 9 8 7 7 6 5 4 3 3 3 4 4 3 3 3 3 3 5 6 4 4 6 7 5 5 5 5 7 9 9 11 13 12 12 13 14 14 15 17 18 18 18 20 21 22 23 23 24 24 25 25 26 27 27 28 29
10 10 11 11 13 15 16 18 18 18 16 14 12 10 11 11 10 9 8 8 8 6 6 5 4 4 5 5 4 4 5 5 4 2 4 5 5 5 6 8 7 6 5 4 6 7 7 8 7 6 6 6 8 9 11 12 14 15 18 21 21 22 22 23 23 24 24 25 26 26 27 28 28 29
12 13 11 10 16 18 19 20 22 23 23 20 14 15 14 12 11 10 10 9 9 8 8 7 8 7 6 7 7 7 6 5 4 5 6 6 5 5 6 7 7 6 6 6 7 8 7 6 6 5 5 5 5 6 6 7 11 16 20 20 20 21 22 23 23 24 24 25 26 26 27 27 28 29
13 11 11 9 14 16 17 16 23 23 24 22 21 22 22 19 18 14 11 10 10 10 8 8 8 8 8 9 8 8 7 6 6 6 6 6 6 5 5 5 4 6 2 5 7 7 5 3 4 5 5 5 5 6 7 13 17 19 19 20 21 21 21 22 23 23 24 25 26 27 27 27 29 29
8 10 11 9 9 11 14 14 16 19 22 22 22 23 22 22 21 21 18 14 11 10 10 9 10 9 9 9 10 9 9 7 7 8 7 7 7 6 6 7 6 4 1 7 7 6 3 3 3 5 5 5 5 6 10 15 17 17 18 20 21 21 22 22 22 22 23 24 26 28 28 28 29 30
9 8 9 9 9 9 18 14 14 15 17 20 23 22 22 21 21 18 19 18 14 13 11 11 10 11 10 11 11 11 9 8 8 8 8 8 7 6 7 8 8 7 5 6 6 5 4 2 4 6 6 5 5 6 9 12 15 17 19 19 20 21 20 21 22 23 24 25 26 28 29 29 29 30
12 12 11 11 10 11 14 12 14 14 15 15 15 16 14 13 17 19 20 18 17 15 10 11 11 11 11 10 10 10 10 9 9 8 8 7 6 7 8 7 7 7 5 5 5 4 2 3 6 7 6 4 6 6 9 14 16 17 18 19 19 19 20 21 22 24 25 26 27 27 28 29 29 29
13 15 13 12 12 13 14 12 16 15 15 15 14 14 13 12 13 14 14 14 13 12 9 10 9 10 11 10 8 8 8 9 8 8 7 4 3 4 4 6 5 5 4 3 3 3 3 6 6 7 7 6 6 6 9 12 15 16 16 17 18 20 22 23 24 25 26 26 26 27 28 29 30 29
11 11 13 13 12 13 12 20 27 19 13 15 16 16 12 11 11 11 13 15 14 12 11 10 10 11 10 9 8 8 8 7 7 4 3 2 2 0 2 4 3 3 3 3 3 3 4 5 7 9 6 7 8 7 7 9 12 14 15 17 20 22 23 22 23 25 26 26 27 28 28 28 29 29
11 12 14 13 11 12 12 22 28 27 21 15 16 16 15 13 11 10 12 18 20 19 18 18 18 15 15 16 16 16 16 10 5 2 1 2 2 1 2 2 1 3 4 4 2 2 6 5 8 11 6 7 10 8 5 6 7 11 18 22 22 22 22 23 24 25 26 27 28 28 28 28 28 32
8 12 23 16 12 12 14 27 31 30 23 17 17 15 14 14 12 11 12 12 13 20 20 20 19 17 17 17 16 14 11 10 5 3 4 3 3 2 2 2 1 4 4 2 5 3 5 7 7 10 10 8 5 3 4 3 6 14 16 17 20 21 23 23 23 24 26 27 26 26 27 28 27 22
8 11 18 26 20 14 18 30 31 32 23 15 16 16 15 13 11 13 12 12 12 12 11 12 13 13 14 6 6 6 6 4 3 3 4 4 4 3 2 1 1 1 0 2 7 5 5 7 7 8 12 5 2 4 1 6 9 10 10 11 12 17 21 24 24 25 24 24 25 27 28 28 27 18
7 8 10 20 27 27 28 30 32 30 29 16 12 12 15 14 13 13 13 12 7 8 11 12 11 9 6 6 5 3 2 1 3 4 5 5 5 4 3 2 2 1 1 1 7 5 5 3 5 5 4 8 8 2 10 12 11 9 10 13 12 14 17 19 18 23 23 23 27 27 29 30 28 18
9 9 11 10 24 29 29 29 31 31 29 19 12 13 12 14 15 16 12 15 18 10 11 9 6 5 4 3 3 2 2 3 4 4 5 5 5 4 4 3 3 4 4 4 4 4 4 4 8 6 4 5 10 14 12 11 12 13 10 10 14 12 12 14 12 13 16 24 26 28 28 27 28 23
8 10 11 9 21 30 29 28 29 30 28 26 14 13 15 17 21 17 11 11 12 9 9 8 5 5 4 3 3 2 3 4 5 5 4 4 4 3 3 4 3 3 3 2 4 4 6 7 4 8 7 8 12 9 16 14 10 11 13 11 10 13 12 14 15 14 13 13 12 16 22 30 30 30
11 9 9 11 25 29 30 29 30 29 30 24 13 21 21 21 22 17 9 8 11 9 8 9 9 8 4 5 4 4 4 5 6 5 4 3 3 3 3 3 3 4 4 4 4 5 6 7 4 6 9 9 12 15 13 13 14 13 14 12 10 13 13 13 16 14 13 15 16 23 26 27 30 30
10 10 10 13 25 27 27 29 29 28 27 18 23 25 25 24 21 12 12 10 10 10 9 10 9 8 4 4 4 5 5 5 5 4 3 3 3 2 2 2 3 4 5 5 5 5 6 7 7 6 8 9 11 12 15 15 14 13 16 17 13 12 14 14 13 14 15 15 15 17 17 16 15 17
9 14 20 24 26 27 28 30 29 26 27 26 25 27 26 23 12 13 12 10 10 11 12 10 8 7 5 5 5 6 6 6 4 4 2 2 1 1 2 4 4 4 4 4 5 6 6 6 8 7 7 8 10 12 12 17 17 15 14 17 17 12 12 15 17 15 15 14 15 16 16 16 19 15
19 23 23 25 26 25 23 19 17 15 16 23 25 27 24 13 12 13 13 11 12 11 10 9 8 5 5 6 6 6 5 4 3 3 2 2 1 2 1 1 2 4 4 4 5 6 7 7 8 8 8 8 9 12 14 16 18 15 14 14 16 18 14 12 15 16 15 17 16 18 21 17 15 17
14 18 19 16 20 16 23 21 15 12 16 20 18 17 14 10 12 11 11 12 12 10 9 8 5 5 5 5 6 5 4 3 3 3 2 1 1 0 1 2 3 2 1 3 4 5 6 7 8 9 9 11 10 12 13 14 17 19 17 14 12 15 15 16 17 16 16 17 19 18 16 19 18 14
12 13 17 19 15 14 15 15 11 11 12 12 11 9 9 11 11 11 13 11 8 7 7 6 5 5 7 7 5 4 3 3 3 3 2 1 0 1 1 3 3 3 4 1 2 5 7 8 8 9 10 12 13 13 12 13 16 17 17 17 15 16 15 16 17 16 18 20 18 19 22 18 16 18
10 10 12 12 13 13 14 12 11 9 8 6 7 9 9 10 10 9 10 11 10 7 7 7 7 7 5 4 4 4 3 2 2 2 1 1 1 1 1 2 4 4 5 5 4 4 5 7 9 11 11 13 14 15 15 18 16 14 13 16 15 16 14 13 14 17 17 18 20 20 19 18 18 19
13 12 12 11 12 12 12 11 12 11 10 11 7 8 9 8 9 8 7 7 8 6 7 6 6 5 5 4 4 3 3 2 2 2 2 1 0 0 2 3 4 4 4 5 4 5 5 6 7 8 9 10 11 12 11 13 18 14 11 12 13 15 17 15 15 15 16 18 19 20 20 25 19 14
14 12 12 12 12 10 9 10 11 10 8 10 8 9 9 8 8 8 8 7 6 6 6 5 4 4 4 4 4 4 3 2 2 1 1 1 0 1 2 3 4 4 5 5 5 5 5 6 8 12 12 10 11 9 15 15 13 15 13 13 11 12 15 14 17 17 20 19 16 20 24 23 22 15
13 15 14 13 12 11 11 10 10 11 11 11 11 11 10 9 8 9 9 8 6 8 6 6 5 5 5 5 4 4 3 3 1 1 0 0 0 2 2 3 5 5 5 6 6 6 5 6 7 10 14 15 14 15 5 16 15 11 13 17 15 13 13 15 17 18 17 16 20 20 20 19 25 22
14 13 14 15 14 13 12 11 11 11 11 11 11 11 12 11 10 8 8 10 7 7 7 6 6 5 5 5 5 5 4 3 2 1 1 1 1 2 3 4 5 5 6 6 6 6 5 5 6 8 11 13 15 16 16 5 11 13 11 14 18 17 15 16 20 22 20 19 19 17 17 25 27 22
14 13 12 13 14 14 13 12 11 10 10 10 10 9 9 10 8 8 9 8 8 8 8 7 6 7 7 6 6 5 4 4 3 2 2 1 2 3 4 5 5 6 6 6 5 5 5 6 7 8 8 11 14 16 19 13 8 7 11 12 15 19 19 20 18 22 21 19 17 18 22 25 22 22
13 13 13 12 12 12 14 14 14 14 12 12 11 11 10 10 9 9 8 8 8 8 8 8 8 7 7 6 4 5 5 4 3 3 2 2 3 3 4 5 6 6 7 7 6 5 5 6 7 7 8 10 13 16 17 20 23 15 12 18 15 17 19 17 20 18 23 20 17 23 23 19 28 41
12 12 12 12 12 12 11 11 11 11 11 12 13 11 12 13 10 9 8 8 8 7 7 6 6 6 5 5 6 4 4 4 4 3 3 3 3 3 4 5 6 7 7 7 7 6 6 7 6 7 8 11 13 15 16 20 22 21 17 17 19 16 14 16 19 22 21 22 23 22 22 24 25 22
10 11 11 11 12 12 12 11 10 10 10 10 10 10 10 9 11 10 9 8 7 7 6 7 7 7 7 6 5 4 4 4 4 3 3 3 4 4 6 7 6 7 8 10 8 8 6 6 8 16 16 12 12 12 15 16 16 15 14 14 14 18 22 21 20 20 22 23 19 17 25 28 26 23
11 11 10 10 11 10 11 11 11 11 10 12 10 11 10 10 13 16 12 12 8 7 6 7 7 7 5 4 5 5 5 4 4 3 3 3 3 4 6 6 6 7 8 11 11 11 9 6 7 9 8 8 10 13 17 16 18 18 16 16 16 18 21 23 25 27 23 20 20 24 23 25 20 20
12 11 11 9 9 9 10 11 11 11 12 10 8 8 9 9 10 12 8 9 8 6 6 6 5 4 4 4 4 4 4 4 3 3 3 3 4 5 5 5 7 8 9 10 11 8 7 7 5 6 8 9 10 10 16 17 17 18 19 18 19 18 17 20 22 26 29 32 29 25 22 18 22 25
12 11 10 10 10 10 10 11 12 10 9 7 8 8 9 10 10 9 8 8 9 8 8 5 5 5 5 4 4 4 4 4 3 4 4 4 5 5 5 7 8 8 9 10 12 9 8 7 6 6 9 10 9 10 15 15 18 17 17 19 17 17 20 18 16 17 21 26 28 27 32 33 31 36
10 11 11 11 10 10 10 10 9 9 8 8 9 10 8 7 8 8 8 8 8 7 6 5 6 4 5 5 6 4 4 5 4 4 4 5 5 6 6 7 8 8 9 9 10 12 10 8 7 6 8 9 8 10 13 15 17 18 20 18 19 18 18 17 19 20 15 12 15 24 30 33 35 36
Wind_Direction
170 170 174 178 163 169 162 161 165 161 154 164 168 176 175 175 173 167 184 199 194 183 199 183 188 178 174 163 165 175 202 351 352 351 332 317 315 313 329 333 331 331 334 337 341 346 348 348 346 342 339 337 335 333 333 333 331 330 329 328 328 328 327 325 324 319 317 315 313 310 308 306 304 303
170 166 168 172 170 167 171 172 166 169 167 163 171 172 167 175 188 177 182 173 188 161 181 215 167 174 201 182 241 212 297 342 342 346 325 319 316 322 329 328 330 334 337 337 339 343 344 341 339 337 335 334 332 332 332 332 331 329 329 329 329 331 330 328 324 321 319 316 314 312 308 306 305 304
167 170 173 175 170 167 172 162 167 172 169 170 163 159 154 186 204 162 172 143 170 161 176 185 134 169 186 194 240 232 250 325 338 327 309 299 302 308 304 311 322 325 326 328 331 338 342 340 338 337 335 331 330 329 328 328 328 328 329 329 330 330 329 328 325 322 321 321 320 318 314 311 306 304
178 169 174 176 171 170 165 168 171 173 174 161 165 162 166 168 171 168 173 181 148 184 169 160 155 147 175 211 217 209 239 249 279 287 281 279 283 278 278 269 306 319 326 333 336 339 340 340 338 334 331 328 328 329 328 329 329 328 330 331 331 330 330 327 324 321 319 320 319 318 316 313 308 306
179 179 172 173 174 165 169 172 169 172 171 170 169 163 165 170 177 178 177 172 137 138 154 157 170 169 185 213 187 232 237 247 244 250 254 264 280 291 305 318 323 329 333 336 336 337 338 338 335 333 332 330 328 326 325 326 327 326 329 329 329 329 327 325 322 319 315 314 313 312 311 311 308 306
183 175 173 175 169 175 174 169 175 173 173 176 170 174 172 176 178 187 174 183 160 158 160 178 180 194 191 213 182 273 294 270 271 277 287 295 325 332 330 327 326 318 322 325 325 329 332 331 330 331 331 329 327 325 326 326 325 324 324 324 325 324 323 321 320 318 315 313 312 312 310 309 306 305
173 175 180 175 167 168 175 179 180 174 176 175 175 169 171 175 179 182 194 165 178 160 165 162 193 185 181 189 188 289 292 301 304 308 322 338 331 312 307 302 294 294 312 318 325 330 331 331 331 332 333 331 327 323 321 321 320 322 324 325 325 323 322 321 321 320 318 315 313 312 310 308 306 304
178 179 173 177 171 172 174 177 176 180 176 177 177 171 175 174 173 177 177 199 166 160 162 180 200 217 280 197 238 288 293 298 306 307 310 306 303 293 272 272 285 299 317 324 327 329 328 327 329 329 329 325 318 315 317 320 323 325 326 326 325 323 322 323 322 320 318 316 315 313 311 309 307 304
178 177 183 167 168 171 173 172 179 173 177 179 173 173 171 173 167 161 175 174 172 171 176 161 169 277 289 282 300 301 309 297 295 306 315 322 322 317 306 295 291 302 314 314 313 311 310 311 314 317 319 312 309 313 318 322 324 326 326 325 322 322 322 321 321 321 319 317 315 313 311 309 306 304
186 183 181 173 170 173 176 178 172 171 175 169 174 171 171 166 158 161 162 165 169 176 180 167 182 200 277 303 289 314 304 310 321 328 330 323 319 323 324 318 307 304 299 305 298 283 284 292 300 306 306 305 308 313 316 320 323 324 323 320 320 320 319 319 319 318 317 314 312 311 309 307 305 302
191 187 179 171 176 178 179 171 173 169 169 173 176 173 163 158 157 159 162 165 167 172 170 175 182 195 236 253 283 311 289 280 296 315 326 330 327 303 298 301 303 287 272 262 258 264 278 287 291 295 297 298 304 309 313 317 319 320 318 316 316 316 317 317 317 315 314 313 310 309 307 306 304 302
191 191 187 181 181 181 179 174 170 167 169 165 167 170 159 162 160 159 156 159 166 168 173 177 176 185 201 229 246 263 273 270 267 242 261 296 307 306 279 269 274 275 248 252 239 244 262 275 280 282 282 285 295 303 308 311 313 314 315 315 315 317 318 317 315 314 312 311 310 308 306 304 303 302
188 190 191 187 186 185 185 176 173 177 169 159 161 165 164 162 160 154 153 155 157 161 162 170 175 183 200 211 213 220 215 216 220 232 231 252 259 271 278 263 249 242 242 247 274 271 271 281 276 280 285 289 299 299 302 305 309 312 315 318 317 317 316 315 313 312 311 310 309 308 307 305 303 302
191 191 190 188 183 184 180 174 174 176 177 180 170 160 164 162 158 159 154 159 162 160 169 178 172 180 199 200 201 202 208 203 220 231 232 239 245 251 257 261 238 226 220 269 274 265 263 268 274 273 283 289 296 302 307 308 311 312 313 313 312 313 313 312 312 311 308 308 307 306 305 304 302 300
188 186 183 170 178 181 178 174 175 176 176 173 174 172 170 168 162 155 160 163 162 165 170 169 174 183 189 196 197 200 200 205 213 220 224 233 236 232 241 255 253 204 197 283 271 266 253 258 282 283 280 293 299 301 298 303 308 310 308 307 308 310 311 311 310 309 308 307 307 305 303 301 300 299
199 185 177 174 173 177 175 167 171 175 174 171 170 173 176 176 176 171 161 157 164 171 164 174 184 176 190 190 191 195 194 203 209 216 221 227 223 226 235 245 246 224 349 292 279 273 270 275 279 286 278 282 283 280 293 302 303 302 302 304 306 308 309 310 309 308 308 308 308 307 304 301 300 298
192 186 180 175 176 172 167 162 169 165 172 172 170 172 175 177 179 182 180 173 163 161 165 177 181 187 179 186 194 190 193 198 209 214 223 223 219 225 237 249 263 272 293 286 279 290 290 293 304 292 281 269 281 285 288 296 301 302 300 300 304 307 309 310 310 309 308 307 306 304 302 300 299 297
183 186 181 175 174 172 173 171 163 160 164 165 167 172 173 177 184 186 185 180 171 168 169 175 182 185 184 191 187 190 195 203 209 217 223 223 218 225 247 268 274 279 282 279 300 292 282 321 311 297 288 281 289 296 290 296 302 301 300 303 305 310 313 311 309 307 306 304 303 300 298 298 298 297
182 178 178 178 174 171 175 170 166 161 164 163 166 169 171 173 181 184 186 182 178 177 176 179 182 187 189 191 194 203 208 210 218 227 227 201 204 245 275 277 264 280 267 283 322 284 305 309 303 287 297 304 298 294 291 288 299 303 304 307 311 314 313 309 307 306 305 302 299 297 296 296 297 297
187 181 177 175 170 172 170 175 174 168 154 161 165 169 166 168 176 187 191 184 182 179 179 183 188 189 183 192 206 208 209 217 217 175 144 131 118 158 282 280 289 285 299 320 315 293 299 312 303 295 302 308 305 301 293 290 297 307 312 315 314 311 306 305 307 305 302 300 298 298 297 294 294 294
178 175 179 177 172 171 172 177 176 172 165 163 166 168 169 171 173 183 187 193 194 193 189 191 191 190 197 200 205 211 218 214 163 136 191 214 161 219 255 272 265 298 328 309 343 317 306 316 318 307 317 313 299 291 283 298 302 307 315 312 310 308 305 303 301 301 302 301 301 297 295 295 294 296
176 177 181 177 169 174 174 179 180 177 170 168 170 167 165 169 176 180 181 185 195 196 195 199 205 203 199 211 217 216 208 201 184 156 218 190 166 229 207 218 291 309 313 357 33 2 305 323 327 318 309 290 243 254 288 294 312 309 305 307 307 305 303 301 299 300 303 302 300 298 295 297 298 297
163 178 186 186 183 175 175 181 184 182 175 169 171 171 168 173 176 182 162 171 178 186 192 200 202 208 208 179 129 147 163 155 162 192 206 198 192 212 202 187 249 311 7 112 27 355 314 337 332 360 335 322 247 208 21 323 311 306 307 303 301 298 299 299 301 300 299 299 300 299 298 296 299 296
182 180 183 191 190 185 181 182 184 183 180 172 169 165 177 177 178 173 168 175 157 175 187 192 187 172 139 143 144 145 162 196 206 214 204 195 191 188 191 184 189 191 240 146 8 334 306 308 312 349 328 306 313 320 325 316 314 305 303 305 300 300 299 300 298 297 297 297 302 300 297 297 296 295
180 178 187 187 190 186 185 186 188 188 183 175 171 176 177 184 174 163 164 175 177 181 184 182 167 149 131 133 145 174 173 203 214 210 202 191 190 180 180 188 198 224 247 271 314 322 300 314 304 315 298 289 281 305 306 308 306 309 305 300 304 304 302 301 296 292 293 296 298 295 296 293 291 294
182 182 180 170 188 188 188 189 190 189 184 181 179 185 177 167 169 169 163 165 171 169 178 176 169 166 154 144 156 188 198 203 210 201 200 188 187 201 189 190 201 228 261 239 311 305 299 295 298 310 305 309 297 297 306 307 302 300 305 300 294 294 300 301 297 294 291 286 290 294 292 294 293 286
184 175 175 176 184 187 189 192 193 190 186 181 180 178 175 172 165 156 151 158 170 171 170 173 184 185 170 176 181 194 205 207 197 200 186 181 182 204 215 231 237 243 268 289 290 290 288 281 285 289 295 299 299 305 300 303 311 315 302 296 299 296 295 292 291 290 291 293 289 290 294 285 288 290
174 179 172 175 184 188 189 191 193 193 187 182 180 179 178 173 168 155 158 163 172 172 170 179 185 186 172 161 183 201 203 199 189 180 175 180 191 197 236 241 259 263 276 278 279 273 272 276 281 264 272 288 294 298 303 299 298 301 304 301 299 294 295 293 286 289 289 289 291 298 298 294 288 289
181 182 181 183 188 188 189 191 193 195 187 178 177 180 177 174 161 158 162 164 162 177 184 187 183 182 180 181 191 197 190 182 172 161 180 167 210 248 244 251 252 253 241 249 257 261 261 262 271 268 266 266 275 284 291 293 300 299 299 303 303 302 295 292 289 285 284 282 284 283 288 292 287 284
179 182 183 187 191 193 191 190 193 194 182 176 178 180 177 171 156 161 165 161 172 184 183 181 184 170 163 177 191 189 184 174 180 170 182 183 202 174 225 246 241 204 211 234 251 260 260 263 271 278 275 271 272 282 289 294 294 292 289 284 288 294 282 280 287 293 289 292 291 299 296 288 284 283
177 182 182 184 189 192 192 191 191 186 184 181 179 182 181 153 156 156 163 170 175 172 172 177 159 150 163 173 180 192 185 172 178 169 184 173 243 183 292 317 304 323 209 197 247 266 274 277 277 284 284 285 283 276 284 287 287 291 287 283 285 283 292 293 288 289 293 295 295 290 286 290 286 279
166 167 177 183 187 188 189 190 186 182 186 187 174 166 142 145 145 148 150 144 161 161 164 146 127 136 164 181 187 186 176 175 174 181 167 177 202 269 327 338 317 326 328 314 248 250 259 265 277 284 283 287 288 290 288 279 276 277 281 283 276 273 274 280 287 289 296 299 291 293 293 288 288 289
154 162 172 178 182 186 185 178 178 167 152 102 116 125 137 139 141 146 157 166 164 150 146 149 150 161 162 176 181 175 167 183 178 177 155 223 158 307 294 293 302 316 317 314 308 273 247 258 260 272 281 283 280 282 290 288 276 264 264 275 281 282 282 274 280 291 298 296 294 295 289 283 283 285
163 173 174 179 184 184 180 173 168 160 141 130 126 138 129 132 137 140 139 133 131 127 143 137 137 161 164 172 172 175 170 183 176 206 156 175 175 277 307 300 295 291 284 286 287 290 282 268 267 256 251 249 252 254 251 266 275 278 268 266 269 280 285 291 287 291 294 293 294 293 293 292 286 286
169 167 174 178 181 180 172 169 165 149 136 143 137 139 147 145 141 139 138 137 122 145 138 138 145 158 167 170 171 169 180 165 175 160 181 170 248 292 287 288 289 287 287 289 289 290 287 294 301 307 304 300 293 256 215 226 258 272 284 274 271 275 286 290 293 296 296 292 290 288 290 291 284 274
179 178 172 172 174 171 173 169 158 155 153 153 151 150 153 159 151 151 156 152 135 150 141 146 156 169 175 173 171 174 169 163 164 164 183 174 264 296 275 262 271 274 276 283 288 296 292 296 309 315 315 314 314 308 292 204 217 268 283 294 295 289 287 291 289 292 291 291 291 292 288 287 292 292
179 180 178 171 168 167 170 165 164 164 158 159 160 162 164 164 166 152 139 138 137 143 151 144 161 169 170 172 170 173 163 161 167 167 225 300 278 271 274 272 269 273 281 279 288 294 290 299 304 313 309 307 307 299 288 193 211 238 269 284 295 294 297 299 303 298 297 295 291 286 288 291 290 291
185 179 178 175 168 164 161 159 161 163 164 162 161 161 163 157 144 137 138 138 146 150 161 162 167 167 171 172 168 170 164 169 160 181 229 247 257 271 274 276 284 286 286 284 284 284 291 297 303 302 297 293 299 297 302 297 285 248 247 277 282 290 296 297 292 294 293 298 289 291 292 291 287 290
180 177 177 170 170 167 164 165 166 170 167 165 166 167 161 154 145 146 145 145 145 157 162 162 169 170 172 174 172 169 160 162 168 196 222 236 246 255 269 278 283 283 283 288 287 285 290 288 291 286 283 283 283 286 292 297 296 294 274 265 270 276 280 287 290 291 294 296 300 299 292 277 283 287
178 172 170 164 165 165 165 163 167 169 165 168 169 169 164 160 145 138 137 144 149 159 157 161 164 164 170 173 170 162 158 170 187 205 208 231 246 254 261 270 275 281 286 283 286 285 287 285 280 277 278 278 278 281 285 286 285 284 278 267 252 260 271 286 287 293 293 296 301 301 296 298 296 298
164 166 167 166 166 167 163 159 161 158 164 164 160 157 154 140 137 133 136 147 143 153 156 166 171 172 172 170 166 158 165 180 189 208 220 229 250 253 264 274 279 285 290 290 285 284 280 285 278 285 283 281 282 285 286 285 282 284 284 282 268 271 274 273 278 283 286 293 298 298 297 295 302 302
161 163 163 161 164 160 153 153 155 156 159 161 153 146 135 137 141 152 152 157 147 151 156 166 172 170 164 153 162 170 173 183 188 201 222 231 252 265 265 266 267 279 287 289 289 289 290 283 275 274 274 277 284 294 287 285 288 293 292 295 291 282 278 274 273 276 279 288 296 297 296 298 298 292
161 159 158 153 147 147 149 152 156 154 155 147 134 133 130 132 148 153 153 155 155 156 160 163 165 155 162 158 167 172 175 187 197 213 228 242 242 255 260 265 273 278 277 279 285 283 286 284 268 275 278 280 276 275 281 285 286 290 296 298 298 301 294 282 272 277 281 281 283 282 282 286 297 295
158 151 144 143 141 144 148 154 149 145 136 127 131 130 136 144 152 151 151 153 159 166 165 156 156 160 164 162 163 173 191 194 204 213 228 235 244 249 264 274 273 275 276 283 289 286 288 283 279 283 287 288 278 275 280 284 291 290 293 295 296 295 293 299 292 276 276 272 273 278 282 279 277 280
147 143 140 138 141 142 146 146 141 142 138 130 131 134 131 130 135 142 148 154 158 154 146 154 159 163 161 163 171 177 199 202 209 220 231 244 254 263 264 265 270 273 278 287 294 295 295 289 284 273 270 268 268 273 278 281 284 294 297 294 294 291 292 300 303 304 296 288 276 283 289 289 289 289